TimePDT,TemperatureF,Dew PointF,Humidity,Sea Level PressureIn,VisibilityMPH,Wind Direction,Wind SpeedMPH,Gust SpeedMPH,PrecipitationIn,Events,Conditions,WindDirDegrees,DateUTC
12:53 AM,52.0,30.9,45,29.91,10.0,Calm,Calm,-,N/A,,Clear,0,2013-06-16 07:53:00
1:53 AM,50.0,30.9,48,29.91,10.0,SSE,3.5,-,N/A,,Clear,160,2013-06-16 08:53:00
2:53 AM,51.1,28.9,43,29.90,10.0,SE,3.5,-,N/A,,Clear,140,2013-06-16 09:53:00
3:53 AM,51.1,30.0,44,29.88,10.0,Calm,Calm,-,N/A,,Clear,0,2013-06-16 10:53:00
4:53 AM,51.1,30.0,44,29.89,10.0,ESE,4.6,-,N/A,,Clear,120,2013-06-16 11:53:00
5:53 AM,52.0,30.9,45,29.90,10.0,ESE,5.8,-,N/A,,Clear,110,2013-06-16 12:53:00
6:53 AM,54.0,32.0,43,29.90,10.0,ESE,6.9,-,N/A,,Clear,110,2013-06-16 13:53:00
7:53 AM,55.9,34.0,44,29.92,10.0,Variable,4.6,-,N/A,,Clear,0,2013-06-16 14:53:00
8:53 AM,57.9,35.1,42,29.94,10.0,ESE,4.6,-,N/A,,Clear,120,2013-06-16 15:53:00
9:53 AM,59.0,36.0,42,29.94,10.0,Variable,3.5,-,N/A,,Clear,0,2013-06-16 16:53:00
10:53 AM,60.1,32.0,35,29.94,10.0,Calm,Calm,-,N/A,,Clear,0,2013-06-16 17:53:00
11:53 AM,63.0,30.0,29,29.93,10.0,North,5.8,-,N/A,,Clear,360,2013-06-16 18:53:00
12:53 PM,66.0,30.9,27,29.92,10.0,Variable,3.5,-,N/A,,Partly Cloudy,0,2013-06-16 19:53:00
1:53 PM,64.0,30.0,28,29.93,10.0,Calm,Calm,-,N/A,,Mostly Cloudy,0,2013-06-16 20:53:00
2:53 PM,68.0,30.9,25,29.91,10.0,Calm,Calm,-,N/A,,Mostly Cloudy,0,2013-06-16 21:53:00
3:53 PM,69.1,28.9,22,29.90,10.0,Variable,4.6,-,N/A,,Clear,0,2013-06-16 22:53:00
4:53 PM,64.0,36.0,35,29.90,10.0,Variable,3.5,-,N/A,,Clear,0,2013-06-16 23:53:00
5:53 PM,66.9,36.0,32,29.89,10.0,Calm,Calm,-,N/A,,Clear,0,2013-06-17 00:53:00
6:53 PM,63.0,36.0,37,29.89,10.0,Calm,Calm,-,N/A,,Clear,0,2013-06-17 01:53:00
7:53 PM,61.0,34.0,36,29.88,10.0,Calm,Calm,-,N/A,,Clear,0,2013-06-17 02:53:00
8:53 PM,60.1,32.0,35,29.89,10.0,Calm,Calm,-,N/A,,Clear,0,2013-06-17 03:53:00
9:53 PM,59.0,32.0,36,29.89,10.0,Variable,3.5,-,N/A,,Mostly Cloudy,0,2013-06-17 04:53:00
10:53 PM,59.0,33.1,38,29.89,10.0,ESE,8.1,-,N/A,,Mostly Cloudy,120,2013-06-17 05:53:00
11:53 PM,57.0,35.1,44,29.90,10.0,SSE,8.1,-,N/A,,Overcast,160,2013-06-17 06:53:00